Temperature
10 11 11 11 10 11 11 11 11 11 10 10 9 9 10 10 10 11 11 12 12 13 13 14 15 16 16 17 17 17 17 17 17 17 17 17 17 17 17 17 16 16 16 16
10 11 11 10 10 10 10 10 10 11 10 9 9 9 10 10 10 11 11 12 13 13 13 14 14 15 15 16 16 16 16 16 16 16 16 16 16 16 16 16 16 16 16 16
9 10 11 9 9 9 9 9 9 9 9 9 9 9 9 10 10 11 12 12 13 13 13 13 13 14 14 14 15 15 15 15 15 15 16 16 16 16 16 16 16 16 16 15
8 10 9 9 10 9 10 9 9 9 9 9 9 10 11 11 11 12 12 13 13 13 13 13 13 13 13 13 13 13 14 14 14 14 14 14 15 15 15 15 15 15 15 14
7 8 9 9 10 9 9 10 9 9 9 9 9 11 12 12 12 12 13 13 13 13 13 13 13 13 13 13 12 12 12 13 13 13 13 13 13 13 13 13 13 13 13 13
7 9 9 9 10 10 9 10 10 9 9 9 9 9 10 12 13 14 14 14 14 13 13 13 13 13 13 12 12 12 12 12 12 12 12 12 12 12 12 12 12 12 12 12
7 8 8 9 10 10 9 9 9 9 9 9 8 9 11 12 13 14 14 14 14 14 14 14 14 13 13 13 12 12 12 11 11 11 11 11 11 11 11 11 11 11 11 11
6 8 8 10 10 9 9 10 10 10 10 10 10 11 12 13 14 15 15 14 14 14 14 14 14 14 13 13 12 12 12 11 11 11 11 11 11 11 11 11 11 11 11 11
7 8 10 11 11 11 10 10 10 10 10 11 11 12 13 14 14 15 15 15 15 15 15 15 14 14 14 13 13 12 12 12 11 11 11 11 11 11 11 11 11 11 11 11
7 8 10 11 11 11 10 10 10 11 11 11 11 12 13 14 14 15 15 15 15 15 15 15 15 15 14 14 13 13 12 12 11 11 11 11 11 11 11 11 11 11 11 11
7 8 10 11 11 11 11 11 11 11 11 11 11 12 13 13 14 15 15 15 15 15 16 16 15 15 15 14 14 13 12 12 11 11 11 11 11 11 10 10 10 10 10 10
8 10 10 11 12 11 11 11 11 11 11 11 11 12 12 13 14 14 15 15 15 16 16 16 16 16 15 15 14 13 13 12 12 11 11 11 11 11 10 10 10 10 10 10
13 12 12 12 12 11 11 11 11 11 11 11 12 12 12 13 14 14 15 15 16 16 16 16 16 16 15 15 14 14 13 12 12 11 11 11 11 10 10 10 10 10 10 10
13 12 12 12 12 12 11 11 11 11 11 11 12 12 12 13 14 15 15 16 16 16 16 16 16 16 16 15 15 14 13 12 12 11 11 11 11 11 10 10 10 10 10 9
12 13 13 12 12 12 11 11 11 11 12 12 12 12 13 13 14 15 15 16 16 16 16 16 16 16 16 16 15 14 13 12 12 11 11 11 11 11 10 10 10 10 10 10
12 12 12 12 12 12 12 11 12 12 12 12 12 12 13 13 14 14 15 16 16 17 17 17 16 16 16 16 15 14 13 12 12 11 11 11 11 11 11 10 10 10 10 10
12 12 12 12 12 12 12 12 12 12 12 12 12 12 13 13 14 15 15 16 16 16 16 17 17 16 16 16 15 14 13 12 12 11 11 11 11 11 11 10 10 10 10 10
14 14 13 13 12 12 12 12 12 12 12 12 12 12 12 13 13 14 15 15 16 16 16 16 16 16 16 16 15 14 13 12 12 11 11 11 11 11 11 10 10 10 10 9
13 13 13 13 12 12 12 12 11 11 11 12 12 12 12 12 12 13 14 14 15 16 16 16 16 16 16 16 15 14 13 13 12 11 11 11 11 11 10 10 10 10 10 9
13 13 13 12 12 12 12 11 11 11 11 11 12 12 12 12 12 13 13 13 14 14 15 16 16 16 16 15 15 14 13 13 12 11 11 11 11 11 10 10 10 10 9 9
13 13 13 12 12 12 12 11 11 11 11 11 11 12 12 12 12 12 13 13 14 14 15 15 15 16 15 15 15 14 13 13 12 11 11 11 11 11 11 10 10 9 9 9
13 13 13 12 12 12 11 11 11 11 11 11 11 11 12 12 12 12 12 12 13 14 14 15 15 15 15 15 15 14 13 13 12 12 11 11 11 11 11 10 10 9 9 8
14 13 13 12 12 12 11 11 11 11 11 11 11 11 12 12 12 12 12 13 13 13 14 14 15 15 15 15 15 14 13 13 12 12 11 11 11 11 11 10 10 10 9 8
14 13 13 12 12 12 11 11 11 11 11 11 11 11 12 12 12 11 11 12 12 13 13 14 14 15 15 15 15 14 13 13 12 12 11 11 11 11 11 10 10 10 9 9
14 13 13 12 12 12 12 12 11 11 11 12 12 11 11 11 11 11 11 11 12 12 13 13 14 14 14 15 14 14 13 13 12 12 11 11 11 11 11 10 10 10 9 9
14 13 13 13 12 12 12 12 11 11 11 12 12 11 11 11 11 11 11 11 11 12 12 13 13 13 14 14 14 14 13 13 12 12 11 11 11 11 10 10 10 10 9 9
13 13 13 13 12 12 12 12 12 12 12 11 12 11 11 11 11 11 11 11 11 12 12 12 13 13 13 13 14 14 13 13 12 12 11 11 11 10 10 10 10 9 9 9
Wind_Speed
4 4 7 13 17 17 14 10 7 7 7 12 16 15 15 16 16 15 15 14 13 11 9 8 8 8 8 7 5 3 4 2 1 1 1 1 1 2 2 3 4 5 5 6
1 1 7 11 17 15 11 9 8 8 7 13 14 12 14 15 17 15 14 13 12 11 11 11 11 10 10 10 10 9 9 7 6 5 5 4 4 3 3 2 2 3 5 5
0 4 2 7 10 9 6 8 8 7 9 15 14 15 13 13 15 14 13 11 10 10 9 9 9 9 10 9 9 10 10 9 9 8 8 8 7 6 6 5 3 2 2 3
2 4 4 4 4 4 5 4 8 9 11 13 14 14 7 7 12 13 12 10 9 8 8 8 7 7 7 8 8 9 9 9 9 9 8 8 8 8 7 5 5 4 4 3
4 3 1 5 3 3 3 3 5 9 12 14 15 7 5 10 13 11 8 7 5 5 5 6 7 7 7 8 8 8 8 8 8 8 8 8 8 7 6 6 6 5 5 5
4 4 1 5 4 3 2 2 3 6 9 11 11 8 9 15 15 12 9 6 5 5 5 6 7 6 7 7 7 8 7 7 7 7 7 7 7 6 5 5 6 6 7 7
4 2 4 6 4 1 2 4 7 5 6 6 5 5 11 15 11 8 7 5 4 5 5 5 6 6 7 6 6 5 5 6 7 7 6 6 6 6 6 6 7 7 7 7
3 2 5 4 1 3 5 4 4 5 5 6 8 10 10 10 10 10 8 7 5 5 5 5 4 4 5 5 5 3 4 5 6 6 6 6 6 7 7 7 8 8 7 7
6 5 5 4 5 4 4 3 5 4 6 7 7 8 9 9 10 9 8 7 5 4 6 6 4 2 3 4 3 1 3 4 4 5 5 6 6 7 6 7 6 6 6 7
3 5 5 5 4 4 4 6 7 7 8 6 6 8 9 8 8 8 7 6 5 5 5 6 5 3 3 3 0 1 1 2 3 4 5 5 5 5 5 6 6 6 6 6
4 5 4 7 7 6 5 6 7 6 5 5 6 7 7 7 8 8 7 6 5 5 6 7 6 5 4 2 2 2 1 1 2 3 3 3 3 3 4 3 4 4 4 5
8 8 7 7 6 5 5 5 5 5 6 6 5 7 7 7 7 7 8 7 7 7 7 7 6 6 5 3 4 3 1 1 1 2 2 2 2 2 2 2 5 6 7 7
7 7 7 4 4 4 4 4 3 4 4 6 6 5 6 6 6 7 8 8 8 8 8 8 7 7 5 4 4 4 2 1 1 2 2 2 2 3 3 3 4 5 8 10
6 8 5 5 5 6 5 3 2 3 4 5 5 6 6 6 7 8 9 9 9 9 8 7 7 6 5 4 5 4 3 2 2 2 2 2 3 3 3 3 4 4 6 10
9 8 7 6 6 5 4 2 1 3 5 6 5 6 7 8 9 9 9 9 9 8 7 7 7 7 4 3 5 5 4 3 2 2 2 3 3 4 4 4 4 4 5 6
10 7 7 7 7 7 5 3 2 3 4 4 5 7 8 8 8 9 9 8 8 9 9 8 8 8 4 3 5 5 4 5 4 3 3 3 3 4 4 4 4 5 6 6
13 10 9 8 8 8 6 6 5 4 4 5 6 7 7 8 8 9 10 9 8 8 7 7 9 9 4 4 6 5 4 4 5 3 2 2 3 3 3 4 4 4 5 6
14 14 11 11 9 8 7 6 5 4 4 5 6 6 6 7 8 9 10 11 9 8 7 9 10 8 2 3 5 5 5 4 3 3 2 2 2 3 3 3 4 4 4 5
10 11 11 11 10 9 7 6 5 4 4 4 4 5 5 6 7 8 8 9 9 10 11 12 15 8 3 2 5 5 5 5 4 3 2 3 3 3 3 3 3 3 3 4
10 10 11 10 9 7 7 6 5 4 4 2 2 4 6 7 7 8 8 7 5 6 9 11 9 6 4 1 4 4 5 5 5 4 3 3 3 3 3 3 3 3 3 3
12 11 11 10 9 8 7 6 5 4 3 2 2 4 5 7 7 6 6 6 7 9 10 12 7 5 4 2 3 3 4 5 5 4 4 4 3 3 3 3 3 3 3 3
11 11 11 10 9 7 6 5 5 4 3 3 3 3 4 6 7 7 6 5 8 13 10 7 6 7 7 3 3 3 4 4 4 4 4 4 4 4 4 4 3 3 3 3
10 11 10 10 9 7 5 5 6 5 5 4 4 4 4 5 4 4 6 6 7 12 10 7 10 13 8 2 4 4 4 5 5 5 5 5 4 4 4 4 4 4 4 3
10 10 10 9 7 6 6 7 6 5 5 5 5 5 4 4 5 4 5 10 13 13 8 10 14 11 2 3 4 4 4 5 4 4 4 4 4 4 4 4 4 4 4 4
10 10 8 8 8 7 8 6 5 5 5 5 6 6 5 4 5 5 7 8 11 11 7 9 13 8 1 2 3 4 4 5 5 5 5 5 5 5 5 5 5 5 4 4
9 9 9 10 9 7 6 6 5 5 4 4 5 5 4 4 5 5 5 7 9 10 8 6 6 5 2 2 3 4 4 5 5 5 5 5 5 5 5 5 6 5 5 5
5 5 5 5 6 6 6 6 6 6 6 6 6 5 5 4 4 4 5 5 6 6 6 6 5 4 3 3 4 4 4 5 5 5 5 5 5 5 6 7 6 5 5 5
Wind_Direction
100 80 50 33 21 24 36 29 31 12 9 358 349 345 346 353 359 10 21 28 31 33 29 24 24 23 25 27 34 68 92 81 49 352 350 7 336 292 264 231 221 213 215 222
135 144 54 35 17 14 20 17 13 10 10 347 339 345 353 359 2 7 12 16 17 25 28 31 32 31 34 37 38 48 54 44 30 28 29 23 2 339 328 306 268 230 224 225
33 304 22 20 356 357 1 23 9 3 343 336 343 343 342 352 358 0 360 1 7 13 17 20 21 25 30 28 33 44 46 39 31 29 31 24 19 19 11 356 346 308 267 245
71 52 54 284 289 326 336 29 17 355 342 341 334 316 308 356 358 351 347 348 353 1 8 10 13 19 25 29 33 37 35 30 24 24 24 20 24 22 12 8 8 358 347 325
93 87 353 321 341 359 334 343 360 346 341 342 336 328 353 0 354 339 329 329 337 351 359 5 8 7 29 29 28 31 26 21 15 17 20 21 19 11 6 9 14 12 9 9
101 104 208 264 289 313 222 306 338 338 333 338 354 20 340 333 334 330 331 334 345 352 3 6 356 4 31 23 24 20 13 10 11 17 23 22 16 13 11 20 22 26 32 28
112 142 247 249 288 34 119 270 306 309 308 322 335 273 285 307 317 323 328 333 351 2 357 343 344 7 21 15 9 357 7 18 21 20 27 28 28 27 25 29 33 31 30 25
137 153 240 242 145 163 215 255 283 286 292 302 298 295 304 318 331 339 343 341 347 347 337 330 343 5 7 356 338 358 29 31 25 22 27 30 35 32 31 32 35 26 20 15
187 209 232 219 210 223 200 244 267 270 286 299 302 309 320 325 332 333 334 332 329 324 323 324 328 333 339 326 333 40 45 31 18 21 27 29 36 33 31 32 32 25 19 13
223 256 245 245 253 259 232 235 257 271 283 287 288 300 312 319 325 331 330 324 322 317 316 312 310 297 280 296 223 135 57 16 9 14 19 28 34 33 35 30 25 20 15 7
226 252 257 266 249 248 258 262 276 288 279 280 291 301 306 311 315 320 320 315 315 307 295 291 296 288 275 242 172 172 192 4 9 11 16 30 39 31 25 25 13 5 360 356
208 204 185 220 226 220 234 258 279 296 310 315 306 300 306 307 305 310 312 312 314 310 300 293 290 281 268 220 185 185 218 341 7 2 9 33 38 20 359 345 355 7 6 1
192 174 177 198 202 207 219 245 270 289 300 310 314 308 309 306 304 311 313 316 315 309 300 295 290 282 271 221 186 181 190 166 60 28 22 33 50 50 26 356 352 4 10 12
158 134 155 194 203 208 212 239 291 318 320 315 310 313 317 314 313 319 319 315 310 307 305 304 299 291 278 217 182 173 164 143 119 77 53 63 68 64 56 41 15 354 356 14
175 169 173 180 188 195 196 206 274 324 326 329 324 325 328 327 322 319 317 318 318 320 325 327 321 310 301 202 172 164 153 141 122 102 86 89 79 70 61 54 40 15 4 8
174 166 156 163 183 195 194 204 231 281 303 312 319 323 322 318 314 315 321 330 335 331 329 330 324 314 304 189 161 151 153 155 137 119 102 92 80 76 67 58 48 36 30 14
160 175 180 184 196 202 205 210 221 248 278 296 307 315 324 330 333 336 336 335 326 314 316 328 324 319 302 178 156 148 143 143 132 113 114 115 102 96 88 77 64 53 39 34
183 185 180 181 186 197 209 220 231 246 263 284 307 327 339 340 334 328 328 331 335 338 345 344 336 333 332 161 149 141 139 136 132 132 128 128 124 119 107 93 79 70 51 45
183 178 178 182 185 186 196 213 230 247 275 292 313 324 321 321 321 321 326 337 346 345 338 337 340 351 351 183 148 140 142 142 136 132 129 131 121 122 123 113 99 89 81 68
182 177 177 183 184 184 196 211 223 246 266 274 300 323 328 326 327 329 331 326 309 299 309 323 333 340 340 246 158 151 154 154 151 146 140 139 142 143 142 136 126 113 102 93
180 176 177 181 189 197 201 200 202 230 257 262 271 294 304 311 321 328 332 324 314 323 325 328 335 329 319 272 178 164 164 160 160 160 160 160 159 157 157 153 145 138 133 126
178 177 179 181 184 197 205 198 201 221 243 254 266 286 306 316 324 324 303 277 296 320 325 316 318 315 313 263 183 179 177 172 167 164 165 169 172 174 174 168 160 156 154 152
177 178 179 182 188 195 195 199 207 214 226 238 250 265 277 285 291 298 306 303 309 318 321 306 315 317 308 203 179 182 183 181 180 179 179 179 182 183 180 174 167 163 163 161
177 180 183 179 167 172 200 219 215 217 226 240 245 246 248 277 294 272 265 300 314 317 314 315 325 327 305 172 177 181 186 189 189 188 185 182 183 184 181 172 166 168 170 164
179 177 171 165 177 199 213 214 213 226 235 247 259 258 242 223 242 278 296 303 314 320 318 326 337 341 342 195 193 193 194 197 195 188 188 187 189 188 185 177 173 169 170 168
182 186 190 193 196 199 196 191 203 219 221 243 262 260 254 248 253 269 286 299 310 318 320 319 326 332 307 252 227 212 205 206 202 197 196 195 195 190 185 183 178 173 171 168
193 194 193 205 213 202 192 191 204 218 214 216 237 248 246 254 267 281 294 304 312 316 318 319 319 315 293 261 246 232 216 207 203 200 197 195 192 194 191 185 179 172 165 163
Height
1558 1555 1553 1552 1548 1543 1542 1542 1542 1541 1539 1539 1535 1530 1525 1519 1514 1509 1504 1501 1499 1497 1496 1494 1492 1491 1490 1489 1490 1491 1492 1492 1493 1494 1495 1496 1496 1497 1498 1498 1499 1500 1500 1501
1559 1555 1555 1556 1555 1552 1549 1548 1546 1543 1542 1541 1537 1532 1527 1522 1517 1513 1509 1507 1505 1502 1500 1498 1496 1494 1493 1491 1491 1491 1491 1491 1492 1492 1492 1492 1493 1494 1494 1495 1496 1496 1497 1497
1563 1557 1558 1565 1563 1560 1557 1556 1553 1551 1550 1543 1537 1533 1530 1526 1521 1518 1515 1513 1510 1507 1505 1502 1501 1499 1497 1495 1494 1493 1492 1491 1491 1490 1490 1490 1490 1491 1491 1492 1492 1493 1493 1493
1567 1564 1570 1570 1561 1561 1558 1557 1556 1553 1550 1545 1540 1535 1532 1530 1525 1522 1520 1518 1515 1513 1510 1508 1506 1504 1502 1500 1497 1495 1493 1492 1490 1490 1489 1489 1488 1489 1489 1489 1489 1489 1489 1489
1570 1572 1570 1566 1561 1561 1560 1558 1556 1554 1550 1545 1540 1534 1532 1530 1528 1525 1523 1522 1520 1518 1515 1513 1511 1509 1506 1503 1500 1498 1496 1494 1492 1491 1489 1489 1488 1488 1488 1488 1487 1486 1486 1485
1569 1570 1572 1568 1560 1559 1561 1558 1556 1554 1551 1547 1542 1540 1538 1532 1529 1528 1526 1525 1524 1522 1520 1517 1514 1512 1510 1507 1504 1502 1499 1497 1495 1493 1492 1491 1490 1490 1489 1488 1487 1486 1484 1483
1569 1570 1567 1561 1558 1558 1564 1562 1555 1553 1551 1548 1546 1546 1540 1535 1532 1530 1529 1528 1526 1525 1522 1520 1518 1515 1513 1511 1508 1506 1504 1501 1499 1497 1496 1495 1494 1493 1491 1490 1488 1487 1485 1484
1571 1569 1569 1556 1557 1559 1559 1554 1553 1552 1550 1548 1545 1542 1539 1536 1533 1532 1530 1529 1528 1526 1525 1523 1521 1519 1516 1514 1512 1510 1507 1505 1503 1501 1500 1498 1497 1495 1494 1492 1490 1488 1487 1485
1564 1563 1555 1554 1554 1554 1554 1553 1552 1551 1549 1547 1545 1542 1540 1537 1535 1533 1532 1530 1529 1528 1526 1525 1523 1521 1519 1517 1514 1512 1510 1508 1506 1504 1502 1501 1499 1498 1496 1493 1491 1489 1487 1485
1558 1555 1553 1553 1553 1553 1552 1552 1551 1550 1549 1547 1545 1543 1541 1538 1536 1534 1533 1531 1530 1528 1527 1526 1524 1522 1520 1518 1516 1514 1512 1510 1508 1506 1504 1503 1501 1499 1496 1494 1492 1490 1488 1486
1555 1552 1551 1551 1551 1551 1551 1551 1550 1549 1548 1547 1545 1543 1541 1539 1536 1535 1533 1531 1529 1528 1526 1525 1524 1522 1521 1519 1517 1515 1513 1511 1510 1508 1506 1504 1502 1500 1497 1495 1493 1492 1490 1488
1549 1545 1547 1547 1549 1550 1550 1550 1549 1549 1548 1546 1545 1542 1540 1538 1536 1534 1532 1530 1529 1527 1525 1524 1523 1522 1520 1518 1517 1515 1514 1512 1510 1508 1507 1505 1503 1501 1499 1497 1495 1494 1492 1490
1539 1541 1543 1545 1547 1548 1549 1549 1549 1548 1547 1546 1544 1542 1539 1537 1535 1533 1531 1529 1527 1525 1524 1522 1521 1520 1519 1518 1516 1515 1514 1512 1510 1509 1507 1506 1504 1502 1500 1499 1498 1496 1495 1493
1537 1540 1542 1544 1545 1547 1548 1548 1548 1547 1547 1545 1544 1542 1539 1537 1535 1533 1531 1529 1527 1525 1523 1521 1520 1519 1518 1517 1515 1514 1513 1512 1510 1509 1508 1507 1505 1503 1501 1500 1499 1499 1497 1496
1535 1538 1540 1542 1544 1545 1546 1547 1547 1546 1546 1545 1543 1541 1539 1536 1534 1532 1530 1528 1526 1524 1522 1520 1518 1517 1516 1516 1515 1513 1513 1512 1511 1510 1509 1508 1507 1505 1503 1502 1501 1501 1500 1499
1532 1535 1538 1540 1542 1543 1544 1545 1545 1545 1545 1544 1542 1541 1538 1536 1534 1532 1529 1527 1525 1523 1521 1519 1518 1517 1516 1515 1514 1513 1512 1512 1511 1510 1510 1509 1509 1507 1506 1505 1504 1503 1502 1501
1527 1530 1534 1537 1539 1541 1542 1543 1543 1543 1543 1542 1541 1540 1538 1536 1533 1531 1529 1527 1525 1523 1521 1519 1517 1516 1515 1514 1514 1513 1512 1512 1512 1511 1511 1510 1510 1509 1508 1507 1507 1506 1505 1504
1523 1526 1530 1533 1536 1538 1540 1541 1541 1541 1541 1541 1540 1538 1536 1534 1532 1530 1528 1526 1525 1523 1521 1519 1517 1516 1515 1514 1513 1512 1512 1512 1512 1512 1511 1511 1511 1511 1510 1510 1509 1508 1507 1506
1521 1525 1529 1532 1534 1536 1537 1538 1539 1539 1539 1539 1538 1537 1535 1533 1531 1529 1527 1525 1523 1522 1520 1519 1517 1516 1515 1514 1513 1512 1512 1512 1512 1512 1512 1512 1512 1512 1511 1511 1511 1510 1509 1508
1518 1523 1526 1529 1532 1533 1535 1536 1536 1537 1537 1537 1536 1535 1534 1532 1530 1528 1526 1525 1523 1521 1520 1518 1516 1515 1514 1514 1513 1512 1512 1512 1512 1512 1512 1512 1512 1512 1512 1512 1511 1511 1510 1510
1515 1519 1523 1527 1529 1531 1532 1533 1534 1535 1535 1535 1534 1533 1532 1530 1529 1527 1525 1523 1522 1520 1519 1517 1516 1515 1514 1513 1513 1512 1512 1511 1511 1511 1512 1512 1512 1512 1512 1512 1512 1512 1511 1510
1512 1516 1520 1524 1527 1528 1530 1531 1531 1532 1532 1532 1532 1531 1530 1528 1527 1525 1524 1522 1520 1518 1516 1515 1514 1513 1513 1512 1512 1512 1511 1511 1511 1511 1511 1512 1512 1512 1512 1512 1512 1512 1511 1511
1509 1513 1517 1521 1524 1526 1527 1528 1529 1529 1530 1530 1529 1528 1527 1526 1525 1523 1521 1520 1518 1516 1514 1513 1512 1511 1511 1511 1511 1511 1511 1511 1510 1510 1510 1511 1512 1512 1512 1512 1512 1511 1511 1510
1507 1511 1514 1518 1521 1522 1523 1525 1526 1527 1527 1527 1527 1526 1525 1524 1523 1522 1520 1518 1516 1514 1512 1510 1509 1508 1508 1509 1509 1509 1510 1510 1510 1510 1510 1510 1511 1511 1512 1512 1512 1511 1510 1510
1505 1508 1511 1514 1516 1518 1520 1522 1523 1523 1524 1524 1524 1523 1522 1521 1520 1519 1518 1516 1514 1512 1510 1508 1507 1506 1506 1506 1507 1508 1508 1509 1509 1509 1509 1509 1510 1510 1511 1511 1511 1510 1510 1509
1502 1505 1507 1510 1512 1515 1517 1518 1519 1519 1520 1520 1520 1520 1519 1519 1518 1517 1516 1514 1512 1510 1508 1506 1505 1504 1504 1504 1504 1505 1506 1507 1507 1507 1507 1507 1508 1508 1509 1509 1509 1509 1509 1508
1499 1501 1504 1506 1508 1510 1512 1513 1514 1515 1516 1516 1516 1516 1516 1516 1515 1514 1513 1512 1510 1508 1506 1504 1503 1502 1502 1502 1502 1502 1503 1504 1505 1506 1506 1506 1506 1506 1507 1507 1508 1508 1508 1507